星链-5574 (STARLINK-5574 )

导读 | 星芒AI

STARLINK-5574 是 SpaceX Starlink 项目中的一颗低轨通信卫星,属于该星座的第五组发射批次。该卫星旨在为全球用户提供高速互联网服务,尤其关注网络覆盖不足的地区。它运行在约 550 公里的轨道高度,采用先进的相控阵天线和激光通信技术,以提升连接速度和稳定性。STARLINK-5574 于 2022 年由猎鹰 9 号火箭成功送入轨道,是 SpaceX 打造全球宽带网络的重要组成部分。

基本信息
目录编号:
55362
目录名称:
STARLINK-5574
国际标识:
2023-013AH
轨道中心:
EARTH
卫星名称:
星链-5574
卫星全名:
星链-5574 (STARLINK-5574 )
卫星状态:
在轨 (已飞行1013 天)
发射日期:
2023-01-26 UTC
国别 :
美国 (US)
星等 :
--
轨道信息
数据来源 国际轨道数据
星历时间: 2025-11-03T20:56:09+0800
1天前
查看轨道信息
半长轴: 6937.23km
偏心率: 0.0001334
轨道倾角: 43.004°
近地点辐角 263.258°
升交点赤经 252.740°
平近点角 96.811°
近地点: 558.169km
远地点: 560.021km
周期: 95.838分钟
每日圈数: 15.025319
详细信息
固有亮度:
5
最大亮度:
2.5
卫星平台:
Starlink v1.5
覆盖范围:
全球
运营商:
太空探索技术公司
运营商所在国:
美国
制造商(研发单位):
太空探索技术公司
制造商所在国:
美国
使用方式:
暂无
卫星简介
星链(Starlink)计划是由太空探索技术公司(SpaceX)提出的一个巨型低轨卫星互联网星座项目,计划在2019年至2024年间在太空搭建由约1.2万颗卫星组成的“星链”网络,其中1584颗将部署在地球上空550千米处的近地轨道,并从2020年开始工作。该卫星仍在工作。
2D轨道图
3D轨道图
轨道高度分析图
轨道倾角分析图
轨道综合分析图
查看轨道综合分析图